This demonstration page uses our WeatherBlox Daily Observations layout. Learn more.

Left ArrowRight Arrow

Hourly Observations for December 20, 2020

Temp ( °F °C ) Dew Point ( °F °C ) Humidity (%) Winds ( mph kmh ) Pressure ( in mb ) Visibility ( mi km ) Precip ( " mm )
12:51 am 00:51 Clear 33 0.6 22 -5.6 64 64 Calm 30.25 1025 10 16.0934 0 0
1:51 am 01:51 Clear 31 -0.6 22 -5.6 69 69 ENE 5 7 30.25 1024 10 16.0934 0 0
2:51 am 02:51 Clear 30 -1.1 21 -6.1 69 69 SSE 6 9 30.25 1025 10 16.0934 0 0
3:51 am 03:51 Clear 29 -1.7 21 -6.1 72 72 Calm 30.27 1025 10 16.0934 0 0
4:51 am 04:51 Clear 28 -2.2 20 -6.7 72 72 E 7 11 30.27 1025 10 16.0934 0 0
5:51 am 05:51 Clear 26 -3.3 20 -6.7 78 78 E 6 9 30.28 1026 10 16.0934 0 0
6:51 am 06:51 Clear 26 -3.3 19 -7.2 75 75 SSE 6 9 30.31 1026 10 16.0934 0 0
7:51 am 07:51 Sunny 30 -1.1 20 -6.7 66 66 E 6 9 30.33 1027 10 16.0934 0 0
8:51 am 08:51 Sunny 34 1.1 21 -6.1 59 59 SSE 8 13 30.34 1028 10 16.0934 0 0
9:51 am 09:51 Sunny 43 6.1 21 -6.1 42 42 SSE 8 13 30.33 1027 10 16.0934 0 0
10:51 am 10:51 Sunny 49 9.4 22 -5.6 35 35 ESE 7 11 30.3 1026 10 16.0934 0 0
11:51 am 11:51 Sunny 55 12.8 22 -5.6 28 28 ESE 9 15 30.26 1025 10 16.0934 0 0
12:51 pm 12:51 Sunny 58 14.4 18 -7.8 21 21 E 5 7 30.21 1023 10 16.0934 0 0
1:51 pm 13:51 Sunny 60 15.6 16 -8.9 18 18 S 3 6 30.17 1022 10 16.0934 0 0
2:51 pm 14:51 Sunny 63 17.2 14 -10 15 15 Calm 30.13 1020 10 16.0934 0 0
3:51 pm 15:51 Sunny 62 16.7 16 -8.9 17 17 SW 3 6 30.13 1020 10 16.0934 0 0
4:51 pm 16:51 Sunny 61 16.1 16 -8.9 17 17 Calm 30.12 1020 10 16.0934 0 0
5:51 pm 17:51 Clear 53 11.7 17 -8.3 24 24 NW 5 7 30.14 1021 10 16.0934 0 0
6:51 pm 18:51 Clear 46 7.8 20 -6.7 35 35 NNE 3 6 30.17 1022 10 16.0934 0 0
7:51 pm 19:51 Clear 46 7.8 19 -7.2 34 34 ESE 6 9 30.17 1022 10 16.0934 0 0
8:51 pm 20:51 Clear 45 7.2 18 -7.8 34 34 ESE 6 9 30.16 1022 10 16.0934 0 0
9:51 pm 21:51 Clear 38 3.3 20 -6.7 48 48 Calm 30.17 1022 10 16.0934 0 0
10:51 pm 22:51 Clear 35 1.7 20 -6.7 54 54 W 3 6 30.17 1022 10 16.0934 0 0
11:51 pm 23:51 Clear 37 2.8 19 -7.2 48 48 NNW 5 7 30.14 1021 10 16.0934 0 0

Powered by AerisWeather